Wind_Speed
12 11 12 12 12 12 12 11 11 11 10 10 9 8 7 7 7 6 5 5 5 5 4 4 4 3 3 2 2 2 1 1 2 3 3 2 2 2 3 3 3 4 5
11 11 11 11 11 11 11 11 11 11 11 10 10 9 9 8 7 7 6 5 4 4 4 4 4 4 4 3 2 2 2 3 3 4 3 2 2 3 3 4 4 4 4
10 9 9 10 10 10 10 10 10 11 11 10 9 9 8 8 7 6 5 5 5 4 4 3 3 3 3 3 3 3 3 3 4 4 3 2 2 3 3 3 4 4 5
9 8 7 8 9 10 10 10 10 10 10 10 9 8 8 7 6 5 5 5 5 4 3 3 3 3 3 3 3 4 3 4 4 3 3 2 3 2 3 4 4 5 5
8 7 6 7 8 9 9 9 9 9 8 8 8 8 6 6 5 5 4 4 4 3 2 1 1 2 3 3 3 3 4 4 4 3 3 3 3 2 3 3 4 4 5
7 7 6 7 7 8 8 9 8 8 7 7 7 7 7 5 5 4 3 4 3 3 2 2 1 2 3 3 3 3 3 3 3 3 2 3 3 3 3 3 4 4 4
6 7 6 6 7 7 8 8 8 7 6 6 6 6 6 5 4 4 5 4 4 3 3 2 2 3 4 3 4 3 3 4 3 3 2 3 3 4 4 4 4 4 5
6 6 6 6 6 7 7 7 8 7 6 5 5 5 5 5 4 4 4 4 4 3 3 3 2 3 4 4 4 3 3 4 4 3 3 4 4 4 4 5 5 5 5
5 5 5 7 7 7 6 6 7 8 7 6 6 5 5 5 5 5 4 4 4 3 3 2 2 3 3 4 4 4 3 4 3 4 4 4 4 4 4 5 6 6 6
6 5 4 6 7 7 6 6 7 8 8 7 6 6 5 5 6 6 5 4 3 3 2 2 2 2 2 3 3 4 4 4 4 4 5 5 5 5 5 5 6 6 7
8 8 7 7 7 7 7 7 7 8 9 8 7 6 5 5 5 5 5 4 4 3 3 3 3 3 3 4 4 4 4 5 5 5 5 5 5 5 6 6 7 8 8
8 9 9 8 8 7 7 8 8 8 9 9 8 7 6 5 5 5 5 4 4 4 3 4 4 4 4 5 5 6 5 6 7 7 6 6 7 7 7 8 9 10 10
11 10 10 9 8 8 8 8 8 9 9 9 8 8 7 7 7 6 6 5 5 5 4 4 4 5 5 6 6 6 7 7 8 7 7 8 8 8 9 10 11 11 11
13 13 12 12 11 10 9 8 8 9 9 9 9 8 8 7 7 7 7 7 7 6 6 6 6 6 7 7 8 8 8 9 9 8 9 9 9 10 10 10 11 12 13
16 15 14 14 13 12 11 10 9 9 9 9 9 9 9 9 8 9 8 8 8 8 8 8 9 9 9 9 9 9 9 9 10 10 10 10 11 12 12 12 12 13 14
17 16 16 16 15 14 14 12 11 10 10 10 10 10 10 10 10 10 9 8 8 8 8 9 10 10 10 11 11 11 11 11 11 11 12 12 13 13 13 13 14 14 15
21 19 19 19 18 17 16 14 13 13 12 12 11 12 11 11 11 11 11 10 10 10 10 10 11 11 11 12 12 12 12 12 13 13 14 14 14 15 15 16 16 17 18
23 21 21 21 20 20 18 17 15 14 14 13 13 13 13 13 13 12 12 12 11 11 11 12 12 12 13 13 14 14 14 14 14 14 15 15 16 17 17 18 18 19 20
25 24 23 22 22 21 21 20 18 17 16 15 15 14 14 14 14 14 13 13 13 13 13 14 14 14 15 15 15 16 16 16 16 16 17 18 18 19 19 19 20 20 21
27 26 25 24 23 23 23 22 20 19 19 18 17 17 17 16 16 15 15 15 15 15 15 15 16 16 16 17 18 18 18 18 18 18 18 19 20 21 22 21 21 22 23
29 28 26 25 24 24 24 24 23 22 21 20 19 18 17 17 17 17 17 17 17 18 17 17 17 18 18 18 18 19 19 20 20 19 20 20 21 21 21 22 22 23 24
31 30 28 26 25 26 25 25 24 24 24 23 22 21 20 20 19 19 19 19 19 19 19 19 19 19 19 19 20 20 20 20 21 21 20 20 21 21 21 22 23 24 24
31 30 29 28 27 26 26 26 26 25 24 25 24 24 23 22 22 21 21 21 21 21 21 21 20 20 20 21 21 21 21 21 22 21 21 21 22 23 23 23 24 25 25
32 31 30 29 28 28 28 27 27 26 26 25 25 25 25 25 24 23 22 23 23 22 22 22 22 22 22 22 22 22 22 22 23 23 23 23 24 24 25 25 26 26 27
32 31 31 30 28 28 28 27 27 27 27 27 27 27 27 26 25 25 25 24 24 24 24 23 23 24 23 23 23 23 23 23 24 24 24 24 25 26 26 27 27 28 28
33 32 32 30 29 29 29 28 28 28 28 28 27 27 27 27 27 27 27 27 26 26 26 25 25 25 25 25 25 25 25 25 25 25 26 26 27 27 28 28 28 29 29
Wind_Direction
46 50 48 46 44 44 45 46 44 46 52 59 64 65 69 73 74 75 75 77 82 91 90 93 91 80 67 48 43 41 44 19 6 359 342 322 320 294 296 293 295 292 280
37 45 45 45 43 41 41 43 42 46 50 58 63 67 67 69 69 70 77 76 78 85 89 85 80 66 47 28 16 6 15 6 353 347 338 323 311 298 299 284 287 287 293
32 36 43 40 38 37 37 38 41 46 52 56 61 66 66 64 64 65 67 67 76 86 90 78 60 47 32 21 11 9 11 1 352 352 350 334 332 327 322 315 300 295 299
32 30 37 36 34 34 35 36 38 43 51 53 56 59 57 58 61 64 65 65 69 74 78 69 37 28 22 13 5 11 10 4 354 351 355 342 334 334 329 325 316 308 306
31 23 32 35 32 31 31 32 35 40 48 51 51 49 46 48 53 55 51 51 52 54 44 35 1 357 359 356 352 352 359 356 350 340 348 354 348 338 329 333 330 321 316
29 25 30 33 29 23 22 26 28 38 43 43 42 42 41 40 38 36 29 30 32 27 7 349 353 343 340 344 353 351 341 344 345 344 356 360 353 339 325 322 327 334 329
27 26 25 25 22 15 16 19 20 26 29 27 28 29 30 32 32 31 27 26 21 2 331 313 327 343 345 346 348 347 348 340 338 341 351 349 336 329 326 323 324 331 339
20 19 17 15 9 9 11 11 11 12 10 3 6 12 13 10 7 2 2 9 5 356 349 344 356 358 355 354 354 343 336 333 335 343 345 338 328 325 320 324 320 321 331
354 359 1 1 359 359 3 4 0 356 354 349 345 345 352 351 344 338 337 342 343 333 338 5 14 9 9 13 1 344 332 329 327 332 339 340 328 325 320 322 323 318 320
342 339 341 340 345 349 348 346 347 344 342 334 331 330 334 336 329 321 319 318 323 331 334 311 315 327 339 342 345 345 338 341 333 329 331 331 324 318 322 325 329 324 322
330 328 331 334 332 335 346 344 340 338 337 338 329 322 321 324 321 317 317 312 320 325 319 313 302 303 319 328 333 338 330 328 326 327 327 330 324 313 309 309 314 317 318
318 319 324 329 323 323 328 328 330 334 335 336 338 329 321 325 325 320 321 308 301 295 299 303 300 300 306 313 318 323 324 317 317 319 320 321 316 311 305 306 309 312 314
313 317 320 321 317 314 316 314 316 321 323 322 323 324 312 309 313 309 299 292 287 285 285 285 287 294 301 303 305 308 309 307 309 310 312 313 311 309 305 303 306 310 311
300 304 308 311 311 302 301 301 305 309 312 312 311 313 311 309 306 305 296 284 276 272 276 280 285 289 292 296 298 298 300 304 307 309 308 309 307 307 304 301 304 309 309
294 296 297 299 301 300 296 295 298 301 302 304 304 303 302 303 307 309 302 287 273 270 275 281 283 283 285 290 293 294 297 300 301 303 305 307 308 309 307 302 302 305 305
285 288 292 290 292 293 293 290 290 293 294 297 297 295 294 296 300 303 303 292 283 281 280 283 287 282 282 284 289 291 292 292 293 295 297 300 301 303 303 303 302 304 304
280 282 286 288 289 290 287 285 284 286 288 290 288 289 289 290 293 294 296 292 287 287 289 285 288 287 286 287 289 289 288 288 290 292 293 295 297 297 298 300 302 303 304
274 278 281 284 286 285 284 283 282 278 281 285 288 287 282 283 286 288 288 287 285 286 290 289 286 286 286 286 286 286 286 286 287 289 291 293 294 294 295 295 297 300 302
272 275 277 278 279 280 281 281 277 274 276 278 282 281 278 279 282 284 284 283 284 283 285 287 289 289 287 287 287 288 287 287 287 288 289 290 292 294 294 294 296 298 300
271 274 275 275 274 274 276 275 271 271 272 274 276 277 273 273 275 278 280 280 281 282 282 284 286 289 289 287 287 288 287 287 286 287 288 289 290 293 294 294 296 298 299
268 271 273 274 272 270 270 271 270 269 271 271 272 273 270 271 273 274 277 278 280 281 282 282 283 285 286 286 287 288 288 287 287 287 288 289 289 292 294 295 297 299 299
266 267 267 269 269 268 266 266 268 268 269 270 270 271 270 272 275 274 275 277 278 279 280 282 282 283 283 284 286 290 290 291 292 289 291 294 294 295 295 295 296 297 298
262 264 266 267 266 265 264 265 267 268 268 267 269 270 270 272 273 273 273 274 276 278 279 280 282 283 285 286 287 288 289 291 292 291 290 291 292 293 295 295 295 296 297
262 262 263 265 265 264 264 263 265 266 267 267 267 266 267 270 271 271 273 275 275 276 276 278 281 283 284 284 285 286 287 288 290 290 290 289 291 292 293 295 295 297 297
259 261 263 263 263 263 262 263 263 264 265 267 266 265 266 266 268 270 272 275 275 276 275 277 280 281 282 283 285 286 286 287 289 290 289 288 289 291 293 295 295 296 297
259 260 262 263 263 263 264 263 262 263 264 267 268 267 265 265 268 270 270 272 273 273 275 276 278 280 283 283 284 285 285 285 286 289 290 290 289 290 292 294 294 295 296
Height
5908 5906 5905 5904 5902 5901 5900 5898 5896 5894 5892 5891 5890 5889 5889 5889 5889 5888 5888 5888 5888 5888 5888 5888 5888 5888 5888 5887 5887 5886 5886 5886 5885 5885 5884 5884 5883 5882 5882 5881 5881 5880 5879
5909 5908 5906 5905 5904 5902 5901 5899 5898 5896 5894 5893 5892 5891 5890 5890 5890 5889 5889 5889 5889 5889 5889 5889 5888 5888 5888 5887 5887 5886 5885 5885 5885 5884 5884 5883 5883 5882 5881 5880 5880 5879 5878
5910 5909 5907 5906 5905 5904 5902 5901 5899 5897 5895 5894 5893 5892 5892 5891 5891 5890 5890 5890 5889 5889 5889 5889 5889 5888 5888 5887 5886 5886 5885 5885 5884 5884 5883 5882 5882 5881 5880 5879 5879 5878 5877
5911 5910 5908 5907 5906 5905 5903 5901 5900 5898 5896 5895 5894 5894 5893 5893 5892 5891 5891 5890 5889 5889 5889 5889 5889 5888 5887 5887 5886 5885 5884 5884 5883 5883 5882 5882 5881 5880 5880 5879 5878 5876 5876
5911 5910 5909 5908 5907 5906 5904 5902 5900 5899 5898 5896 5895 5895 5894 5893 5893 5892 5891 5891 5890 5889 5889 5889 5888 5888 5887 5886 5885 5884 5884 5883 5882 5882 5881 5880 5879 5879 5879 5878 5877 5876 5874
5911 5910 5909 5908 5907 5906 5904 5903 5901 5900 5898 5897 5896 5895 5894 5894 5893 5892 5891 5891 5890 5889 5888 5888 5887 5887 5886 5885 5884 5883 5883 5882 5881 5881 5880 5879 5878 5878 5877 5876 5876 5874 5873
5911 5910 5909 5909 5907 5906 5904 5903 5901 5900 5899 5898 5896 5895 5894 5893 5893 5892 5891 5890 5889 5889 5888 5887 5886 5886 5885 5884 5883 5882 5882 5881 5880 5879 5879 5878 5878 5877 5876 5875 5874 5873 5872
5911 5910 5909 5908 5907 5906 5904 5903 5901 5900 5899 5897 5896 5895 5894 5893 5892 5891 5891 5890 5889 5888 5887 5886 5886 5885 5884 5883 5882 5882 5881 5880 5879 5878 5878 5877 5876 5875 5875 5874 5873 5872 5870
5910 5909 5908 5907 5906 5905 5904 5902 5901 5900 5898 5897 5895 5894 5893 5892 5891 5890 5890 5889 5888 5887 5887 5886 5885 5884 5883 5882 5882 5881 5880 5879 5878 5877 5877 5876 5875 5874 5873 5872 5872 5871 5869
5909 5908 5907 5906 5905 5904 5903 5901 5900 5899 5897 5896 5895 5893 5892 5891 5890 5889 5889 5888 5887 5886 5885 5885 5884 5883 5882 5881 5881 5879 5878 5877 5877 5876 5875 5874 5873 5872 5872 5871 5870 5869 5868
5907 5906 5906 5905 5904 5903 5902 5900 5899 5898 5896 5895 5893 5892 5891 5890 5889 5888 5887 5886 5886 5885 5884 5884 5883 5882 5881 5880 5880 5878 5877 5876 5876 5875 5874 5873 5872 5871 5870 5869 5868 5867 5866
5905 5905 5904 5903 5902 5901 5900 5899 5898 5897 5895 5894 5892 5891 5889 5888 5888 5886 5885 5884 5884 5883 5883 5882 5881 5881 5880 5879 5878 5877 5876 5875 5874 5873 5872 5871 5870 5869 5868 5867 5866 5865 5863
5903 5902 5902 5901 5900 5899 5898 5897 5896 5895 5894 5892 5891 5889 5888 5887 5886 5885 5884 5882 5882 5881 5881 5880 5880 5879 5878 5877 5876 5875 5874 5873 5872 5871 5870 5869 5868 5866 5865 5864 5863 5861 5860
5899 5899 5899 5899 5898 5897 5895 5894 5893 5892 5891 5890 5889 5888 5886 5885 5884 5883 5881 5880 5880 5879 5879 5878 5878 5877 5876 5875 5874 5873 5872 5871 5870 5869 5868 5866 5865 5864 5862 5861 5859 5858 5857
5896 5895 5894 5895 5894 5894 5892 5891 5891 5890 5889 5888 5887 5885 5884 5883 5882 5880 5879 5878 5877 5877 5876 5876 5875 5874 5873 5872 5871 5870 5869 5868 5867 5866 5865 5864 5862 5861 5859 5858 5856 5855 5853
5891 5891 5890 5890 5890 5890 5889 5888 5887 5886 5885 5884 5884 5883 5882 5881 5879 5878 5877 5876 5875 5874 5873 5873 5872 5871 5870 5869 5868 5867 5866 5865 5864 5863 5862 5860 5859 5857 5856 5854 5853 5851 5849
5886 5886 5886 5886 5885 5885 5885 5884 5884 5883 5882 5881 5880 5878 5878 5878 5877 5875 5874 5873 5872 5871 5870 5869 5868 5868 5867 5866 5865 5864 5863 5862 5861 5859 5858 5857 5855 5853 5851 5850 5848 5847 5844
5880 5880 5880 5880 5880 5880 5880 5879 5879 5878 5878 5877 5876 5875 5874 5874 5873 5872 5871 5870 5869 5868 5867 5866 5865 5864 5863 5861 5860 5859 5858 5857 5856 5855 5853 5852 5850 5849 5847 5845 5844 5842 5840
5874 5875 5874 5874 5874 5874 5874 5873 5873 5873 5873 5872 5871 5871 5870 5869 5869 5868 5867 5866 5865 5864 5863 5862 5861 5860 5858 5857 5856 5855 5854 5852 5851 5850 5848 5846 5845 5844 5842 5840 5838 5836 5834
5867 5868 5868 5867 5867 5868 5868 5868 5867 5867 5867 5867 5866 5866 5865 5864 5864 5863 5863 5862 5861 5860 5859 5858 5857 5855 5854 5852 5851 5849 5848 5847 5845 5844 5842 5840 5839 5838 5836 5834 5832 5830 5828
5859 5860 5860 5860 5860 5861 5861 5861 5861 5861 5861 5860 5860 5859 5859 5859 5859 5858 5858 5857 5856 5855 5854 5853 5851 5850 5849 5847 5845 5844 5842 5841 5839 5837 5836 5834 5832 5831 5829 5827 5826 5824 5821
5851 5852 5852 5853 5853 5853 5853 5853 5853 5854 5854 5853 5853 5853 5853 5853 5852 5852 5852 5851 5850 5849 5848 5847 5846 5844 5843 5841 5839 5838 5836 5835 5833 5831 5830 5828 5826 5825 5823 5821 5819 5817 5815
5842 5843 5843 5844 5845 5845 5845 5846 5845 5846 5846 5846 5846 5846 5846 5846 5846 5846 5845 5844 5843 5843 5842 5840 5839 5838 5837 5835 5834 5832 5830 5828 5827 5825 5823 5821 5820 5818 5816 5814 5812 5810 5808
5833 5834 5834 5835 5836 5836 5836 5837 5837 5838 5838 5838 5838 5838 5839 5839 5839 5838 5838 5837 5837 5836 5835 5834 5833 5832 5830 5829 5827 5825 5823 5822 5820 5818 5816 5814 5813 5811 5809 5807 5804 5802 5800
5822 5823 5824 5825 5826 5826 5827 5828 5829 5829 5829 5830 5830 5830 5830 5830 5830 5830 5830 5830 5830 5828 5828 5827 5826 5824 5823 5821 5820 5818 5816 5815 5813 5811 5809 5807 5806 5804 5802 5800 5797 5794 5792
5813 5814 5815 5815 5816 5818 5818 5818 5820 5821 5821 5822 5822 5821 5821 5822 5822 5823 5822 5822 5821 5821 5820 5819 5818 5817 5815 5813 5812 5811 5809 5807 5805 5804 5802 5800 5798 5796 5794 5792 5789 5786 5784